[Iaude] MPEC R152: 2023 RM5 [a=1.73,e=0.42,i=12.2,H=26.4]

mpec at marsden.cfa.harvard.edu mpec at marsden.cfa.harvard.edu
Mon Sep 11 22:42:39 EDT 2023


M.P.E.C. 2023-R152                           Issued 2023 September 12, 02:41 UT

     The Minor Planet Electronic Circulars contain information on unusual
         minor planets, routine data on comets and natural satellites,
         and occasional editorial announcements.  They are published
    on behalf of Division F of the International Astronomical Union by the
          Minor Planet Center, Smithsonian Astrophysical Observatory,
                          Cambridge, MA 02138, U.S.A.
			  
             Prepared using the Tamkin Foundation Computer Network

                              MPC at CFA.HARVARD.EDU
            URL https://www.minorplanetcenter.net/    ISSN 1523-6714

                                    2023 RM5                                    


Observations:
     K23R05M  C2023 09 05.29862121 33 52.547+15 01 29.45         21.38GVER152F52
     K23R05M  C2023 09 05.31025021 33 55.992+15 00 40.78         21.36GVER152F52
     K23R05M  C2023 09 05.32188421 33 59.333+14 59 52.27         22.90GVER152F52
     K23R05M  C2023 09 05.33362621 34 02.844+14 59 02.12         21.25GVER152F52
     K23R05M  C2023 09 08.31611721 55 26.852+10 20 11.30         21.03GVER152F51
     K23R05M  C2023 09 08.34268821 55 39.614+10 16 59.93         21.09GVER152F51
     K23R05M* C2023 09 11.33142622 30 53.454+02 08 43.71         20.42wXER152F52
     K23R05M  C2023 09 11.34240522 31 02.671+02 06 22.14         20.46wXER152F52
     K23R05M  C2023 09 11.36430722 31 21.017+02 01 38.75         20.57wXER152F52
     K23R05M  C2023 09 11.46880822 32 49.495+01 38 46.82         19.98GVER152F52
     K23R05M  C2023 09 11.46944322 32 50.010+01 38 38.95         19.97GVER152F52
     K23R05M 1C2023 09 11.86739 22 39 26.23 +00 05 44.8          20.1 VXER152033
     K23R05M 1C2023 09 11.86790 22 39 26.70 +00 05 37.6          20.0 VXER152033
     K23R05M 1C2023 09 11.86842 22 39 27.21 +00 05 30.1          19.9 VXER152033
     K23R05M 1C2023 09 11.87238 22 39 31.00 +00 04 33.3          20.1 VXER152033
     K23R05M pC2023 09 11.87412822 39 32.75 +00 04 23.0          20.6 GVER152L01
     K23R05M MC2023 09 11.87540422 39 33.95 +00 04 05.3          20.6 GVER152L01
     K23R05M KC2023 09 11.87816722 39 36.55 +00 03 25.2          20.9 GVER152L01
     K23R05M KC2023 09 11.93301322 40 29.38 -00 09 41.7          19.8 GVER152104
     K23R05M KC2023 09 11.93710422 40 33.28 -00 10 40.9          19.8 GVER152104
     K23R05M KC2023 09 11.94119322 40 37.22 -00 11 39.9          19.7 GVER152104
     K23R05M KC2023 09 12.03155 22 42 04.64 -00 33 41.1          19.9 GXER152K83
     K23R05M KC2023 09 12.03478 22 42 07.84 -00 34 27.9          19.5 GXER152K83

Observer details:
033 Karl Schwarzschild Observatory, Tautenburg.  Observers S. Melnikov, C.
    Hoegner, F. Ludwig, M. Hartmann, B. Stecklum.  Measurer B. Stecklum.
    1.34-m f/3 Schmidt + CCD.
104 San Marcello Pistoiese.  Observers P. Bacci, M. Maestripieri.  Measurers
    P. Bacci, L. Tesi, G. Fagioli.  0.60-m F4 Reflector + CCD.
F51 Pan-STARRS 1, Haleakala.  Observers J. Bulger, K. Chambers, T. Lowe, P.
    Minguez, A. Schultz, I. Smith.  Measurers S. Chastel, J. Fairlamb, M.
    Huber, Y. Ramanjooloo, R. Wainscoat, R. Weryk.  1.8-m Ritchey-Chretien +
    CCD.
F52 Pan-STARRS 2, Haleakala.  Observers J. Bulger, K. Chambers, T. Dukes, T.
    Lowe, P. Minguez, A. Schultz, I. Smith.  Measurers S. Chastel, J.
    Fairlamb, M. Huber, Y. Ramanjooloo, R. Wainscoat, R. Weryk, K. Chambers,
    T. de Boer, J. Bulger, H. Gao, C.-C. Lin, T. Lowe, E. Magnier, P. Minguez,
    A. Schultz, I. Smith.  1.8-m Ritchey-Chretien + CCD.
K83 Beppe Forti Astronomical Observatory, Montelupo.  Observers M. Tombelli,
    A. Mazzanti, M. Lombardo, F. Cheli, G. Interrante, A. Squilloni, M. Iozzi.
    Measurers M. Tombelli, F. Bernardi.  0.40-m f/8 Ritchey-Chretien + CCD.
L01 Visnjan Observatory, Tican.  Observer K. Korlevic.  1.0-m f/2.9 reflector
    + CCD.

Orbital elements:
2023 RM5                                                 Earth MOID = 0.0294 AU
Epoch 2023 Sept. 13.0 TT = JDT 2460200.5                Veres                   
M 347.93054              (2000.0)            P               Q                  
n   0.43416043     Peri.  211.68095     +0.92916964     -0.36770171             
a   1.7273058      Node   169.68012     +0.36767605     +0.90871728             
e   0.4236625      Incl.   12.22608     +0.03818506     +0.19755595             
P   2.27           H   26.46          G   0.15           U   8                  
Residuals in seconds of arc
230905 F52  0.1-  0.1-    230911 F52  0.1-  0.3+    230911 L01  0.0   0.4+
230905 F52  0.3+  0.1-    230911 F52  0.1+  0.2-    230911 L01  0.4-  0.1-
230905 F52  0.7-  0.3+    230911 F52  0.3-  0.4+    230911 104  0.0   0.2-
230905 F52  0.4+  0.2-    230911 033  0.4+  0.2-    230911 104  0.2-  0.1-
230908 F51  0.0   0.1+    230911 033  0.1+  0.1-    230911 104  0.2+  0.1+
230908 F51  0.0   0.1-    230911 033  0.3+  0.2-    230912 K83  0.1+  0.4-
230911 F52  0.0   0.1+    230911 033  0.3+  0.3-    230912 K83  0.5+  0.5+
230911 F52  0.1+  0.2+    230911 L01  0.2+  0.2-

Ephemeris:
2023 RM5                 a,e,i = 1.73, 0.42, 12                  q = 0.9955
Date    TT    R. A. (2000) Decl.     Delta      r    Elong.  Phase     V
2023 08 13    20 51 33.6 +22 03 25   0.2038  1.1805   141.9    31.9    24.7
...
2023 08 28    21 05 21.6 +20 33 55   0.1152  1.1054   143.8    32.6    23.4
...
2023 09 05    21 32 09.3 +15 22 31   0.07189 1.0712   149.9    28.2    22.1
...
2023 09 11    22 25 54.0 +03 18 57   0.04344 1.0490   165.3    14.1    20.6
2023 09 12    22 41 36.8 -00 23 11   0.03954 1.0457   170.0     9.7    20.2
2023 09 13    23 00 36.1 -04 50 49   0.03609 1.0424   174.6     5.2    19.8
...
2023 09 19    02 26 28.5 -38 08 16   0.03195 1.0248   127.9    50.7    20.9
...
2023 09 27    05 53 26.9 -41 32 48   0.06276 1.0074    92.6    83.8    23.4
...
2023 10 12    07 11 15.9 -36 17 33   0.1355  0.9954    84.9    87.3    25.2

M. P. C. Staff               (C) Copyright 2023 MPC           M.P.E.C. 2023-R152





More information about the Iaude mailing list